Location: Bastelaar
(51.0950°N, 3.8602°E)
Time: 17:51:46
(UTC+00:00)

Cosmos 44 Rocket - Pass Details

Date: 18 November 2025
Orbit: 637 x 741 km, 65.1° (Epoch: 10 December)

Event Time Altitude Azimuth Distance (km) Brightness Sun altitude
Rises 16:37:13 0° 183° (S) 2,983 6.9 -7.1°
Reaches altitude 10° 16:39:47 10° 171° (S) 2,092 5.9 -7.5°
Maximum altitude 16:43:43 26° 115° (ESE) 1,324 4.4 -8.1°
Enters shadow 16:47:40 11° 60° (ENE) 2,127 5.1 -8.6°
